Location: Prairie State College
(41.5244°N, 87.6382°W)
Time: 19:36:18
(UTC-05:00)

Cosmos 1140 Rocket - Visible Passes

Search period start: 25 May 2016 00:00
Search period end: 04 June 2016 00:00
Orbit: 745 x 768 km, 74.1° (Epoch: 25 May)

Date Brightness Start Highest point End Pass type
(mag) Time Alt. Az. Time Alt. Az. Time Alt. Az.
25 May 4.2 00:29:48 42° W 00:30:34 45° WNW 00:35:37 10° N visible
25 May 5.6 22:09:35 11° E 22:09:35 11° E 22:10:36 10° ENE visible
25 May 3.4 23:49:34 75° SW 23:49:59 82° WNW 23:55:16 10° NNE visible
26 May 6.0 01:30:40 10° WNW 01:32:39 12° NW 01:34:39 10° NNW visible
26 May 3.6 23:09:16 53° ESE 23:09:33 54° ESE 23:14:40 10° NNE visible
27 May 5.6 00:49:15 15° W 00:51:43 20° WNW 00:55:36 10° N visible
27 May 4.4 22:28:55 29° ESE 22:29:15 29° E 22:33:44 10° NE visible
28 May 4.8 00:08:54 26° WSW 00:10:55 35° WNW 00:15:43 10° N visible
28 May 5.1 21:48:29 16° ESE 21:49:03 16° E 21:52:08 10° ENE visible
28 May 3.8 23:28:27 39° SW 23:30:17 62° WNW 23:35:30 10° NNE visible
29 May 3.4 22:47:55 40° S 22:49:47 73° ESE 22:55:02 10° NNE visible
30 May 6.0 00:29:00 10° W 00:32:11 16° NW 00:35:21 10° NNW visible
30 May 4.0 22:07:18 27° SSE 22:09:25 39° ESE 22:14:16 10° NE visible
30 May 5.3 23:47:15 11° WSW 23:51:19 27° WNW 23:55:44 10° N visible
31 May 4.8 21:26:32 15° SE 21:29:11 21° E 21:33:04 10° NE visible
31 May 4.4 23:06:28 15° SW 23:10:36 46° WNW 23:15:40 10° N visible
01 Jun 3.5 22:25:30 14° SSW 22:30:02 85° WNW 22:35:19 10° NNE visible
02 Jun 6.2 00:10:34 10° WNW 00:12:41 12° NW 00:14:48 10° NNW visible
02 Jun 3.7 21:44:32 10° S 21:49:36 53° ESE 21:54:42 10° NNE visible
02 Jun 5.8 23:27:49 10° WSW 23:31:45 21° WNW 23:35:40 10° N visible
03 Jun 4.4 21:04:53 10° SSE 21:09:18 28° E 21:13:45 10° NE visible
03 Jun 5.0 22:46:10 10° SW 22:50:58 35° WNW 22:55:47 10° N visible
